Showing default

ICEYE-X7, 46496

Orbit data source: Space-Track

ICEYE-X7, 46496 is a payload satellite owned by ICEYE (FI) in SSO that was launched on Mon, 28 Sep 2020 UTC via a SOYUZ-2-1B launch vehicle from the Plesetsk Missile And Space Complex (PKMTR). Payload-class satellites include a variety of spacecraft equipped with specific instruments for various scientific and technological missions. These include communications satellites like Starlink; space stations such as the ISS; scientific satellites like the Hubble; Earth observation satellites from companies like Planet Labs, Umbra, and HawkEye 360; GPS; miniature CubeSats for education and research; and military/defense satellites.

Loading next visibility...
Identifier
46496, 2020-068L
Orbit
SSO
Country
Flag of FIFI / FIN
Related business
Manufacturer
ICEYE
Mission
Operational Commercial Radar Imaging
Bus & Motor
ICEYE, Unknown motor
Mass
80 kg wet, 80 kg dry
Launch date (UTC)
2020-09-28 (5 years ago)
Launch vehicle
SOYUZ-2-1B
Launch site
Plesetsk Missile And Space Complex (PKMTR)
Object type
Payload
Rocket body
Debris
Shape & HBR
Box + 1 Pan, 1.6 m
Radar Cross Section
1.837 m², Medium (>0.1 m² and < 1m²)

Expand to show TLE details & history
Last TLE update: 6 hours ago

TLE from 6 hours ago
0 ICEYE-X7
1 46496U 20068L   25242.94997961  .00017040  00000-0  72643-3 0  9991
2 46496  97.7110 193.8035 0006919 263.5990  96.4458 15.22994437270487
Epoch: 2025-08-30T22:47Z
TLE epoch observation values (Epoch: 2025-08-30T22:47:58.238Z)
Latitude
-0.00002°
Longitude
-127.56609°
Altitude
500.437 km
Speed
7.614 km/s
True Right ascension
12h 55m 12s
True Declination
0° 00' 00"
Sunlit
Object was in daylight at epoch
Visualization orbit readout
Latitude
Unknown
Longitude
Unknown
Altitude
Unknown
Speed
Unknown
Apparent Right ascension
Unknown
Apparent Declination
Unknown
Sunlit
N/A
Visualization observer readout
Local Sidereal Time
20:07:54
Azimuth
Unknown
Elevation
Unknown
Doppler factor
Unknown
Orbital elements
Apogee altitude
498.544 km
Perigee altitude
489.035 km
Semi-major axis
6,871.927 km
Eccentricity
0.00069
Inclination
97.711°
RAAN
193.8035°
Arg. of periapsis
263.599°
True anomaly
96.52458°
Mean anomaly
96.4458°
Eccentric anomaly
96.48519°
Mean motion
3.81 °/min
Orbital period
94.49 mins
BSTAR
0.00072643
Loading maneuver chart data...
Computing Atmospheric mass density...
Loading historical data...
Loading historical data...
Loading historical data...
Loading historical data...
Loading historical data...
Loading historical data...
Loading historical data...

Documentation

Showing up to 5 results
|